Retour au catalogue

BRO-12

ActifScienceSSO
NORAD 59108·PAYLOAD·🇫🇷 France

Lancé Mar 4, 2024 depuis Vandenberg Space Force Base

Loading…

Prochains Passages (prochaines 24 heures)

TLE

FraisSource: Space-Track

Époque: Sep 14, 2026, 14:15 UTC

1 59108U 24043L   26257.59388142  .00001154  00000-0  10543-3 0  9995
2 59108  97.8605  29.1459 0009746  61.2281 298.9918 14.97013411138016

Suivez BRO-12 en temps réel avec AllMySat

Download on the App Store